CDT,Max TemperatureF,Mean TemperatureF,Min TemperatureF,Max Dew PointF,MeanDew PointF,Min DewpointF,Max Humidity, Mean Humidity, Min Humidity, Max Sea Level PressureIn, Mean Sea Level PressureIn, Min Sea Level PressureIn, Max VisibilityMiles, Mean VisibilityMiles, Min VisibilityMiles, Max Wind SpeedMPH, Mean Wind SpeedMPH, Max Gust SpeedMPH,PrecipitationIn, CloudCover, Events, WindDirDegrees
2013-7-1,72,69,66,70,67,64,100,93,78,29.90,29.85,29.79,10,8,4,9,4,,0.04,7,Rain-Thunderstorm,27
2013-7-2,90,78,66,77,68,65,100,85,56,30.03,29.94,29.88,10,8,3,13,7,18,0.00,6,Rain,161
2013-7-3,81,71,61,67,63,62,100,80,52,30.13,30.08,30.02,10,7,2,8,3,,0.00,4,,212
2013-7-4,73,69,65,72,69,66,100,94,82,30.12,30.09,30.05,10,8,3,10,3,,0.00,4,,100
2013-7-5,81,72,64,72,68,64,100,92,67,30.12,30.08,30.05,10,9,4,14,3,,0.01,6,Rain,107
2013-7-6,79,72,64,72,67,64,100,90,69,30.12,30.08,30.04,10,9,5,13,9,,0.54,3,Rain,125
2013-7-7,86,74,63,72,67,64,100,89,51,30.13,30.08,30.04,10,5,0,8,1,,0.01,3,Fog-Rain,163
2013-7-8,90,79,68,75,72,68,100,78,52,30.15,30.10,30.05,10,10,6,10,4,,0.00,0,,203
2013-7-9,92,82,73,77,75,70,100,78,47,30.10,30.05,29.99,10,10,10,13,6,,0.00,1,Rain,213
2013-7-10,88,80,72,78,75,70,100,82,65,30.01,29.95,29.88,10,10,4,16,8,29,0.09,2,Rain-Thunderstorm,204
2013-7-11,82,76,70,74,66,57,100,76,42,30.02,29.98,29.93,10,8,2,13,4,18,0.00,3,,17
2013-7-12,82,72,63,60,58,56,84,60,39,30.09,30.04,30.01,10,10,10,13,8,22,0.00,0,,49
2013-7-13,82,73,64,67,62,58,84,68,53,30.07,30.04,30.01,10,10,10,13,7,,0.06,1,,62
2013-7-14,88,78,68,74,70,65,93,74,53,30.17,30.12,30.06,10,10,10,12,6,18,0.00,2,,114
2013-7-15,88,80,73,73,72,71,90,71,55,30.27,30.22,30.17,10,10,10,13,8,,0.00,2,,138
2013-7-16,92,82,72,75,73,71,100,74,52,30.33,30.28,30.25,10,10,10,7,2,,0.00,2,,204
2013-7-17,92,82,73,76,74,69,100,73,47,30.32,30.26,30.19,10,10,7,9,3,,0.00,1,,16
2013-7-18,92,84,75,77,74,66,97,74,53,30.20,30.12,30.04,10,9,4,9,3,16,0.00,2,Rain-Thunderstorm,52
2013-7-19,90,81,72,75,73,72,100,77,54,30.06,30.00,29.93,10,9,4,13,5,,0.00,1,Rain,224
2013-7-20,91,80,70,75,72,66,100,81,55,29.95,29.92,29.84,10,9,2,15,6,21,0.51,3,Rain-Thunderstorm,239
2013-7-21,88,79,70,75,72,71,100,87,59,29.98,29.92,29.86,10,7,2,32,5,38,0.31,3,Rain-Thunderstorm,171
2013-7-22,86,78,70,75,72,71,100,91,65,29.88,29.85,29.81,10,9,5,15,5,,0.00,5,Rain,199
2013-7-23,90,79,68,78,73,66,100,85,55,29.87,29.83,29.76,10,9,2,10,6,,0.33,4,Rain-Thunderstorm,200
2013-7-24,79,72,66,69,62,59,97,70,50,29.99,29.93,29.85,10,10,10,10,7,,0.00,2,,348
2013-7-25,79,71,63,61,58,54,87,66,42,30.08,30.05,29.98,10,10,10,12,5,,0.00,0,,8
2013-7-26,81,70,59,67,63,59,100,76,49,30.08,30.04,29.99,10,9,5,9,2,,0.00,1,Rain,235
2013-7-27,79,71,63,68,64,53,100,80,54,29.99,29.95,29.90,10,9,5,13,4,,0.05,4,Rain,244
2013-7-28,75,64,52,58,53,49,100,68,43,30.08,30.04,30.00,10,10,10,10,3,17,0.00,1,,257
2013-7-29,81,68,56,65,61,57,100,73,45,30.18,30.15,30.09,10,10,10,9,4,,0.00,1,Rain,202
2013-7-30,72,69,66,70,66,62,100,90,71,30.18,30.14,30.08,10,8,2,12,6,,0.46,4,Rain,108
2013-7-31,77,72,66,72,70,66,100,96,84,30.09,30.02,29.96,10,6,2,9,5,,0.03,7,Rain,111